Location: Pakowki
(49.4656°N, 110.9468°W)
Time: 17:03:21
(UTC+00:00)

X-37B - Visible Passes

Search period start: 06 July 2022 00:00
Search period end: 16 July 2022 00:00
Orbit: 328 x 343 km, 45.0° (Epoch: 29 June)

Date Brightness Start Highest point End Pass type
(mag) Time Alt. Az. Time Alt. Az. Time Alt. Az.
06 Jul 1.4 04:17:58 10° WSW 04:20:27 28° S 04:22:55 10° SE visible
07 Jul 2.0 04:38:33 10° WSW 04:40:40 19° SSW 04:42:14 13° SSE visible
08 Jul 2.7 04:59:46 10° SW 05:00:48 11° SSW 05:01:28 11° SSW visible
